Regional Weather Roundup
Issued by NWS Green Bay, WI

Home | Current Version | Previous Version | Text Only | Print | Product List | Glossary On
Versions: 1 2 3 4 5 6 7 8 9 10 11 12 13 14 15 16 17 18 19 20 21 22 23 24 25 26 27 28 29 30 31 32 33 34 35 36 37 38 39 40 41 42 43 44 45 46 47 48 49 50
000
ASUS43 KGRB 202210
RWRGRB

NORTH-CENTRAL AND NORTHEAST WISCONSIN REGIONAL WEATHER ROUNDUP
NATIONAL WEATHER SERVICE GREEN BAY WI
500 PM CDT WED AUG 20 2014

WIZ005-009-010>012-018-019-202300-
NORTH CENTRAL WISCONSIN

CITY           SKY/WX    TMP DP  RH WIND       PRES   REMARKS
IRONWOOD       CLOUDY    66  61  82 N5        29.91R
MANITOWISH WTR CLOUDY    66  59  77 CALM      29.94S
ARBOR VITAE    CLOUDY    69  61  75 CALM      29.94S
EAGLE RIVER    CLOUDY    67  59  75 CALM      29.94R
LAND O LAKES   CLOUDY    66  61  83 W5        29.96R
RHINELANDER    CLOUDY    67  59  75 CALM      29.94S
PHILLIPS       CLOUDY    69  59  71 N3        29.92S
ANTIGO         PTSUNNY   70  62  74 N6        29.93S
TOMAHAWK       MOSUNNY   71  59  67 NE3       29.93S
MERRILL        CLOUDY    71  61  72 CALM      29.92R
$$

WIZ013-073-202300-
NORTHEAST WISCONSIN

CITY           SKY/WX    TMP DP  RH WIND       PRES   REMARKS
IRON MOUNTAIN  CLOUDY    69  60  73 CALM      29.90R
MARINETTE      CLOUDY    70  63  78 SW8       29.88S
OCONTO         CLOUDY    72  63  75 W6        29.89S
$$

WIZ017-030-035>037-045-202300-
CENTRAL WISCONSIN

CITY           SKY/WX    TMP DP  RH WIND       PRES   REMARKS
MEDFORD        CLOUDY    71  61  72 CALM      29.93R
WAUSAU         PTSUNNY   74  60  61 CALM      29.91R
MOSINEE        PTSUNNY   72  63  73 VRB5      29.93R
MARSHFIELD     MOSUNNY   76  62  62 W7        29.91R
WISC RAPIDS    MOSUNNY   78  63  59 N6        29.91R
STEVENS POINT  MOSUNNY   72  60  65 NW3       29.91S
WAUPACA        MOSUNNY   79  63  57 N6        29.90R
SHAWANO        CLOUDY    75  63  65 NE6       29.90S
CLINTONVILLE   SUNNY     73  57  56 NW3       29.89F
$$

WIZ038-039-048-051-202300-
FOX VALLEY

CITY           SKY/WX    TMP DP  RH WIND       PRES   REMARKS
NWS GREEN BAY  MOSUNNY   74  62  66 CALM      29.89F
APPLETON       MOSUNNY   73  61  64 N7        29.90S
OSHKOSH        SUNNY     75  65  70 E6        29.89R
FOND DU LAC    SUNNY     77  65  66 N9        29.89R
$$

WIZ022-050-052-202300-
EAST CENTRAL WISCONSIN

CITY           SKY/WX    TMP DP  RH WIND       PRES   REMARKS
STURGEON BAY   MOSUNNY   72  61  68 W7        29.90F
MANITOWOC      MOSUNNY   70  65  84 SE7       29.90S
SHEBOYGAN      SUNNY     73  64  73 SE6       29.89S
$$

LMZ563-521-522-541>543-202300-
LAKESHORE

STATION/POSITION TIME  TEMP    WIND        PRES    VSBY  WAVE
                       AIR SEA DIR/SP/G                  HT/PER
                 (UTC) (F)     (DEG/KT/KT) (MB)    (MI)  (FT/S)
SHEBOYGAN LKSHOR 2200   67 67  150/  7/  7 1012.5R
KEWAUNEE LKSHORE 2200   69      80/  2/  4 1011.7R
TWO RIVERS CG    2100   74 70                N/A       6   1
NORTHPORT PIER   2200   65     140/  5/  7 1012.2S
N MID LAKE BUOY  2200   63 63  220/  4/  6 1011.9R         1
S GREEN BAY BUOY 2200   69     VRB  8      1013.4R
SISTER BAY LKSHO 2100   77     300/  6/  6   N/A
STURGEON BAY CG  2100   66 64  170/  6     1012.4      6   1
CHAMBERS ISLAND  2200   69     190/  4/  8 1012.5R
MENOMINEE LKSHOR 2200   68     210/  7/ 11 1012.9R
$$



USA.gov is the U.S. government's official web portal to all federal, state and local government web resources and services.